Alborg, Denmark

3:24 AM CET on January 20, 2017 (GMT +0100)
Aalborg

Weather History for EKYT - July, 2013

Change the Weather History Date:

Friday, July 12, 2013

  Actual Average Record
Temperature  
Mean Temperature 62 °F -  
Max Temperature 75 °F 68 °F 80 °F (1999)
Min Temperature 48 °F 53 °F 48 °F (2000)
Degree Days  
Heating Degree Days 4    
Growing Degree Days 12 (Base 50)    
Moisture  
Dew Point 55 °F    
Average Humidity 76    
Maximum Humidity 100    
Minimum Humidity 31    
Precipitation  
Precipitation 0.00 in - - ()
Sea Level Pressure  
Sea Level Pressure 30.13 in    
Wind  
Wind Speed 4 mph ()    
Max Wind Speed 16 mph    
Max Gust Speed -    
Visibility 4.2 miles    
Events Fog    
Averages and records for this station are not official NWS values.
T = Trace of Precipitation, MM = Missing Value Source: Averaged Metar Reports

Daily Weather History Graph

Daily Weather History Graph

Search for Another Location

Airport or City:

Trip Planner

Search our weather history database for the weather conditions in past years. The results will help you decide how hot, cold, wet, or windy it might be!

Date:

Astronomy

Jul. 12, 2013 Rise Set
Actual Time 4:43 AM CEST 10:08 PM CEST
Civil Twilight 3:41 AM CEST 11:09 PM CEST
Nautical Twilight 1:58 AM CEST 12:53 AM CEST
Astronomical Twilight Sun does not rise Sun does not rise
Moon 9:47 AM CEST (7/12) 11:00 PM CEST (7/12)
Length of Visible Light 19h 28m
Length of Day
17h 24m
Waxing Crescent, 15% of the Moon is Illuminated
Jul 12
Waxing Crescent
Jul 16
First Quarter
Jul 22
Full
Jul 29
Last Quarter
Aug 6
New

Hourly Weather History & Observations

Time (CEST) Temp. Dew Point Humidity Pressure Visibility Wind Dir Wind Speed Gust Speed Precip Events Conditions
12:00 AM 57 °F 55 °F 92% 30.12 in 3 mi NW 3.5 mph - -  
12:20 AM 57.2 °F 55.4 °F 94% 30.12 in 6.2 mi WNW 3.5 mph - N/A Fog Shallow Fog
12:50 AM 57.2 °F 55.4 °F 94% 30.12 in 5.0 mi NNW 2.3 mph - N/A Fog Fog
1:00 AM 55 °F 53 °F 92% 30.13 in 2 mi ESE 1.2 mph - -  
1:20 AM 55.4 °F 53.6 °F 94% 30.12 in 3.7 mi Variable 1.2 mph - N/A Fog Fog
1:50 AM 51.8 °F 51.8 °F 100% 30.12 in 0.5 mi WNW 1.2 mph - N/A Fog Patches of Fog
2:00 AM 54 °F 53 °F 95% 30.12 in 0 mi West 2.3 mph - - Fog Patches of Fog
2:20 AM 53.6 °F 51.8 °F 94% 30.12 in 0.5 mi WNW 3.5 mph - N/A Fog Patches of Fog
2:50 AM 53.6 °F 53.6 °F 100% 30.12 in 0.5 mi NW 4.6 mph - N/A Fog Patches of Fog
3:00 AM 54 °F 53 °F 94% 30.13 in 1 mi NW 2.3 mph - -   Scattered Clouds
3:20 AM 51.8 °F 50.0 °F 94% 30.12 in 0.5 mi NNW 3.5 mph - N/A Fog Patches of Fog
3:50 AM 50.0 °F 50.0 °F 100% 30.12 in 0.5 mi North 2.3 mph - N/A Fog Patches of Fog
4:00 AM 50 °F 49 °F 97% 30.13 in 1 mi Calm Calm - -   Scattered Clouds
4:20 AM 50.0 °F 48.2 °F 94% 30.12 in 0.4 mi North 1.2 mph - N/A Fog Patches of Fog
4:50 AM 48.2 °F 48.2 °F 100% 30.12 in 0.3 mi North 1.2 mph - N/A Fog Patches of Fog
5:00 AM 49 °F 48 °F 96% 30.12 in 0 mi Calm Calm - - Fog Partial Fog
5:20 AM 50.0 °F 48.2 °F 94% 30.12 in 0.2 mi NW 2.3 mph - N/A Fog Fog
5:50 AM 50.0 °F 50.0 °F 100% 30.12 in 0.2 mi WNW 2.3 mph - N/A Fog Fog
6:00 AM 50 °F 49 °F 94% 30.13 in 0 mi West 1.2 mph - -  
6:20 AM 51.8 °F 50.0 °F 94% 30.12 in 0.1 mi WNW 1.2 mph - N/A Fog Fog
6:50 AM 53.6 °F 51.8 °F 94% 30.12 in 0.1 mi WNW 3.5 mph - N/A Fog Fog
7:00 AM 60 °F 59 °F 94% 30.15 in 3 mi WSW 4.6 mph - -   Partly Cloudy
7:20 AM 55.4 °F 55.4 °F 100% 30.12 in 0.1 mi West 3.5 mph - N/A Fog Fog
7:50 AM 57.2 °F 57.2 °F 100% 30.12 in 0.4 mi West 3.5 mph - N/A Fog Fog
8:00 AM 58 °F 57 °F 95% 30.14 in 2 mi West 3.5 mph - -   Mist
8:20 AM 59.0 °F 57.2 °F 94% 30.12 in 2.8 mi WSW 3.5 mph - N/A   Mostly Cloudy
8:50 AM 59.0 °F 59.0 °F 100% 30.12 in 2.8 mi West 3.5 mph - N/A   Mostly Cloudy
9:00 AM 60 °F 59 °F 94% 30.15 in 3 mi WSW 4.6 mph - -   Partly Cloudy
9:20 AM 60.8 °F 59.0 °F 94% 30.12 in 5.0 mi WSW 3.5 mph - N/A   Partly Cloudy
9:50 AM 62.6 °F 59.0 °F 88% 30.15 in 6.2 mi SW 4.6 mph - N/A   Scattered Clouds
10:00 AM 63 °F 58 °F 79% 30.16 in 3 mi WSW 2.3 mph - -   Scattered Clouds
10:20 AM 64.4 °F 59.0 °F 83% 30.15 in 6.2 mi SW 5.8 mph - N/A   Scattered Clouds
10:50 AM 64.4 °F 59.0 °F 83% 30.15 in 6.2 mi SW 5.8 mph - N/A   Scattered Clouds
11:00 AM 65 °F 58 °F 73% 30.16 in 12 mi SW 3.5 mph - -   Partly Cloudy
11:20 AM 66.2 °F 59.0 °F 78% 30.15 in 6.2 mi SW 4.6 mph - N/A   Scattered Clouds
11:50 AM 68.0 °F 57.2 °F 68% 30.15 in 6.2 mi SSW 3.5 mph - N/A   Partly Cloudy
12:00 PM 70 °F 58 °F 56% 30.16 in 4 mi ESE 2.2 mph - -  
12:20 PM 69.8 °F 57.2 °F 64% 30.15 in 6.2 mi SSW 4.6 mph - N/A   Partly Cloudy
12:50 PM 71.6 °F 55.4 °F 57% 30.15 in 6.2 mi SW 4.6 mph - N/A   Partly Cloudy
1:00 PM 72 °F 56 °F 48% 30.15 in 4 mi SSW 6.7 mph - -   Scattered Clouds
1:20 PM 71.6 °F 55.4 °F 57% 30.15 in 6.2 mi WSW 5.8 mph - N/A   Partly Cloudy
1:50 PM 73.4 °F 55.4 °F 53% 30.12 in 6.2 mi SW 6.9 mph - N/A   Partly Cloudy
2:00 PM 74 °F 55 °F 42% 30.15 in 12 mi SW 11.2 mph - -   Scattered Clouds
2:20 PM 75.2 °F 51.8 °F 44% 30.12 in 6.2 mi SW 5.8 mph - N/A   Partly Cloudy
2:50 PM 75.2 °F 51.8 °F 44% 30.12 in 6.2 mi SW 5.8 mph - N/A   Partly Cloudy
3:00 PM 75 °F 51 °F 31% 30.14 in 4 mi WSW 15.7 mph - -   Partly Cloudy
3:20 PM 75.2 °F 55.4 °F 50% 30.12 in 6.2 mi West 4.6 mph - N/A   Partly Cloudy
3:50 PM 75.2 °F 55.4 °F 50% 30.12 in 6.2 mi West 4.6 mph - N/A   Partly Cloudy
4:00 PM 74 °F 56 °F 44% 30.14 in 4 mi NW 11.2 mph - -   Partly Cloudy
4:20 PM 73.4 °F 55.4 °F 53% 30.12 in 6.2 mi WNW 9.2 mph - N/A   Partly Cloudy
4:50 PM 73.4 °F 55.4 °F 53% 30.12 in 6.2 mi NW 8.1 mph - N/A   Partly Cloudy
5:00 PM 74 °F 55 °F 40% 30.14 in 16 mi NW 8.1 mph - -   Scattered Clouds
5:20 PM 73.4 °F 55.4 °F 53% 30.12 in 6.2 mi NW 8.1 mph - N/A   Partly Cloudy
5:50 PM 71.6 °F 51.8 °F 50% 30.12 in 6.2 mi WNW 8.1 mph - N/A   Partly Cloudy
6:00 PM 72 °F 54 °F 43% 30.13 in 4 mi NW 15.7 mph - -  
6:20 PM 71.6 °F 53.6 °F 53% 30.12 in 6.2 mi NW 9.2 mph - N/A   Partly Cloudy
6:50 PM 69.8 °F 55.4 °F 60% 30.12 in 6.2 mi NW 9.2 mph - N/A   Partly Cloudy
7:00 PM 70 °F 56 °F 51% 30.14 in 4 mi NW 15.7 mph - -  
7:20 PM 69.8 °F 57.2 °F 64% 30.12 in 6.2 mi NW 8.1 mph - N/A   Partly Cloudy
7:50 PM 68.0 °F 57.2 °F 68% 30.12 in 6.2 mi NW 6.9 mph - N/A   Partly Cloudy
8:20 PM 68.0 °F 55.4 °F 64% 30.12 in 6.2 mi NW 5.8 mph - N/A   Partly Cloudy
8:50 PM 64.4 °F 53.6 °F 68% 30.12 in 6.2 mi NW 4.6 mph - N/A   Partly Cloudy
9:00 PM 64 °F 54 °F 61% 30.14 in 4 mi NW 6.7 mph - -  
9:20 PM 62.6 °F 53.6 °F 72% 30.12 in - WNW 4.6 mph - N/A   Clear
9:50 PM 60.8 °F 55.4 °F 82% 30.12 in - NW 4.6 mph - N/A   Clear
10:00 PM 60 °F 55 °F 78% 30.14 in 4 mi NW 2.2 mph - -  
10:20 PM 59.0 °F 55.4 °F 88% 30.12 in - WNW 2.3 mph - N/A   Clear
10:50 PM 59.0 °F 55.4 °F 88% 30.12 in - West 3.5 mph - N/A   Clear
11:00 PM 58 °F 55 °F 85% 30.14 in 12 mi West 6.7 mph - -   Clear
11:20 PM 57.2 °F 55.4 °F 94% 30.12 in - West 4.6 mph - N/A   Clear
11:50 PM 57.2 °F 55.4 °F 94% 30.12 in - WNW 5.8 mph - N/A   Clear